Houston, TX

11:28 PM CDT on September 29, 2016 (GMT -0500)
Houston / Dunn Helistop

Weather History for KMCJ - February, 2013

Change the Weather History Date:

Monday, February 18, 2013

  Actual Average (KHOU) Record (KHOU)
Temperature  
Mean Temperature 62 °F 57 °F  
Max Temperature 69 °F 67 °F 87 °F (1986)
Min Temperature 55 °F 47 °F 19 °F (1936)
Degree Days  
Heating Degree Days 3 9  
Month to date heating degree days 185  
Since 1 July heating degree days 1109  
Growing Degree Days 12 (Base 50)    
Moisture  
Dew Point 59 °F    
Average Humidity 78    
Maximum Humidity 94    
Minimum Humidity 63    
Precipitation  
Precipitation 0.65 in 0.13 in 2.09 in (1938)
Month to date precipitation 2.04  
Year to date precipitation 5.42  
Sea Level Pressure  
Sea Level Pressure 29.92 in    
Wind  
Wind Speed 15 mph (SSW)    
Max Wind Speed 24 mph    
Max Gust Speed 36 mph    
Visibility 7 miles    
Events      
T = Trace of Precipitation, MM = Missing Value Source: NWS Daily Summary

Daily Weather History Graph

Daily Weather History Graph

Search for Another Location

Airport or City:

Trip Planner

Search our weather history database for the weather conditions in past years. The results will help you decide how hot, cold, wet, or windy it might be!

Date:

Astronomy

Feb. 18, 2013 Rise Set
Actual Time 6:58 AM CST 6:13 PM CST
Civil Twilight 6:33 AM CST 6:37 PM CST
Nautical Twilight 6:05 AM CST 7:05 PM CST
Astronomical Twilight 5:38 AM CST 7:33 PM CST
Moon 12:12 PM CST (2/18) 1:26 AM CST (2/18)
Length of Visible Light 12h 03m
Length of Day
11h 15m
First Quarter, 58% of the Moon is Illuminated
Feb 18
First Quarter
Feb 25
Full
Mar 4
Last Quarter
Mar 11
New
Mar 19
First Quarter

Hourly Weather History & Observations

Time (CST) Temp. Dew Point Humidity Pressure Visibility Wind Dir Wind Speed Gust Speed Precip Events Conditions
12:15 AM 62.6 °F 50.0 °F 63% 30.01 in 10.0 mi South 18.4 mph 26.5 mph N/A   Mostly Cloudy
12:35 AM 62.6 °F 50.0 °F 63% 30.01 in 10.0 mi South 13.8 mph 23.0 mph N/A   Overcast
12:55 AM 62.6 °F 50.0 °F 63% 30.01 in 10.0 mi South 13.8 mph 21.9 mph N/A   Overcast
1:15 AM 62.6 °F 50.0 °F 63% 30.00 in 10.0 mi South 17.3 mph 24.2 mph N/A   Mostly Cloudy
1:35 AM 62.6 °F 51.8 °F 68% 29.99 in 10.0 mi South 19.6 mph 24.2 mph N/A   Mostly Cloudy
1:55 AM 62.6 °F 51.8 °F 68% 29.98 in 10.0 mi South 18.4 mph 32.2 mph N/A   Overcast
2:15 AM 64.4 °F 53.6 °F 68% 29.97 in 10.0 mi South 16.1 mph 26.5 mph N/A   Overcast
2:35 AM 64.4 °F 53.6 °F 68% 29.97 in 10.0 mi South 15.0 mph 25.3 mph N/A   Overcast
2:55 AM 64.4 °F 53.6 °F 68% 29.96 in 10.0 mi South 12.7 mph 21.9 mph N/A   Overcast
3:15 AM 64.4 °F 55.4 °F 73% 29.95 in 10.0 mi South 13.8 mph 23.0 mph N/A   Overcast
3:35 AM 64.4 °F 55.4 °F 73% 29.95 in 9.0 mi South 13.8 mph 23.0 mph N/A   Overcast
3:55 AM 64.4 °F 55.4 °F 73% 29.94 in 9.0 mi South 18.4 mph 27.6 mph N/A   Overcast
4:15 AM 64.4 °F 55.4 °F 73% 29.94 in 9.0 mi South 11.5 mph 19.6 mph N/A   Overcast
4:35 AM 64.4 °F 55.4 °F 73% 29.93 in 9.0 mi South 16.1 mph 24.2 mph N/A   Overcast
4:55 AM 64.4 °F 55.4 °F 73% 29.93 in 9.0 mi South 16.1 mph 21.9 mph N/A   Mostly Cloudy
5:15 AM 64.4 °F 55.4 °F 73% 29.93 in 8.0 mi South 13.8 mph 23.0 mph N/A   Mostly Cloudy
5:35 AM 64.4 °F 55.4 °F 73% 29.94 in 8.0 mi SSW 11.5 mph 24.2 mph N/A   Overcast
7:15 AM 64.4 °F 57.2 °F 77% 29.94 in 6.0 mi South 11.5 mph 17.3 mph N/A   Overcast
7:35 AM 64.4 °F 57.2 °F 77% 29.92 in 5.0 mi South 12.7 mph 24.2 mph N/A   Mostly Cloudy
7:55 AM 64.4 °F 57.2 °F 77% 29.93 in 6.0 mi South 12.7 mph 24.2 mph N/A   Mostly Cloudy
8:35 AM 66.2 °F 57.2 °F 73% 29.94 in 5.0 mi SSW 17.3 mph 27.6 mph N/A   Scattered Clouds
8:55 AM 68.0 °F 57.2 °F 68% 29.94 in 5.0 mi South 20.7 mph 33.4 mph N/A   Mostly Cloudy
9:15 AM 68.0 °F 57.2 °F 68% 29.94 in 6.0 mi South 20.7 mph 33.4 mph N/A   Overcast
9:35 AM 68.0 °F 59.0 °F 73% 29.93 in 5.0 mi South 23.0 mph 28.8 mph N/A   Overcast
9:55 AM 68.0 °F 59.0 °F 73% 29.94 in 7.0 mi South 19.6 mph 25.3 mph N/A   Overcast
10:15 AM 68.0 °F 59.0 °F 73% 29.94 in 6.0 mi South 24.2 mph 35.7 mph N/A   Overcast
10:35 AM 69.8 °F 59.0 °F 68% 29.94 in 7.0 mi South 15.0 mph 25.3 mph N/A   Mostly Cloudy
10:55 AM 69.8 °F 59.0 °F 68% 29.94 in 5.0 mi SSW 16.1 mph 32.2 mph N/A   Overcast
11:15 AM 68.0 °F 59.0 °F 73% 29.96 in 5.0 mi South 11.5 mph 27.6 mph N/A   Overcast
11:35 AM 69.8 °F 59.0 °F 68% 29.94 in 6.0 mi South 16.1 mph 26.5 mph N/A   Overcast
11:55 AM 68.0 °F 60.8 °F 78% 29.93 in 5.0 mi South 12.7 mph 23.0 mph 0.01 in   Overcast
12:15 PM 69.8 °F 60.8 °F 73% 29.91 in 6.0 mi South 19.6 mph 26.5 mph N/A   Overcast
12:55 PM 69.8 °F 62.6 °F 78% 29.89 in 1.2 mi SSW 10.4 mph 24.2 mph 0.02 in   Overcast
1:15 PM 69.8 °F 62.6 °F 78% 29.87 in 6.0 mi South 11.5 mph 24.2 mph N/A   Overcast
1:35 PM 69.8 °F 62.6 °F 78% 29.86 in 2.0 mi South 13.8 mph 26.5 mph 0.02 in   Overcast
1:55 PM 66.2 °F 62.6 °F 88% 29.85 in 0.5 mi SW 12.7 mph 35.7 mph 0.10 in   Overcast
2:15 PM 69.8 °F 62.6 °F 78% 29.84 in 8.0 mi SW 18.4 mph 32.2 mph 0.01 in   Mostly Cloudy
2:35 PM 68.0 °F 62.6 °F 83% 29.84 in 6.0 mi SW 8.1 mph 24.2 mph 0.01 in   Mostly Cloudy
2:55 PM 68.0 °F 62.6 °F 83% 29.83 in 6.0 mi South 10.4 mph 20.7 mph 0.01 in   Mostly Cloudy
3:15 PM 68.0 °F 64.4 °F 88% 29.83 in 2.5 mi SW 3.5 mph - 0.01 in   Mostly Cloudy
3:35 PM 66.2 °F 64.4 °F 94% 29.83 in 1.2 mi WSW 18.4 mph 29.9 mph 0.07 in   Overcast
3:55 PM 66.2 °F 64.4 °F 94% 29.84 in 2.0 mi WSW 6.9 mph - 0.31 in   Overcast
4:15 PM 68.0 °F 66.2 °F 94% 29.84 in 7.0 mi WSW 9.2 mph - N/A   Scattered Clouds
4:35 PM 68.0 °F 64.4 °F 88% 29.84 in 7.0 mi SW 8.1 mph 16.1 mph N/A   Mostly Cloudy
4:55 PM 68.0 °F 64.4 °F 88% 29.84 in 7.0 mi WSW 10.4 mph 17.3 mph 0.01 in   Mostly Cloudy
5:15 PM 69.8 °F 64.4 °F 83% 29.85 in 7.0 mi WSW 12.7 mph 24.2 mph N/A   Scattered Clouds
5:35 PM 69.8 °F 64.4 °F 83% 29.86 in 7.0 mi WSW 13.8 mph 25.3 mph N/A   Clear
5:55 PM 68.0 °F 64.4 °F 88% 29.86 in 5.0 mi SW 16.1 mph 21.9 mph N/A   Clear
6:15 PM 68.0 °F 64.4 °F 88% 29.87 in 6.0 mi SW 12.7 mph 20.7 mph N/A   Clear
6:55 PM 68.0 °F 64.4 °F 88% 29.88 in 7.0 mi SW 6.9 mph 18.4 mph N/A   Partly Cloudy
7:15 PM 68.0 °F 62.6 °F 83% 29.89 in 8.0 mi SW 8.1 mph 18.4 mph N/A   Clear
7:35 PM 68.0 °F 62.6 °F 83% 29.90 in 8.0 mi SW 9.2 mph 17.3 mph N/A   Clear
7:55 PM 68.0 °F 62.6 °F 83% 29.90 in 7.0 mi SW 11.5 mph 23.0 mph N/A   Clear
8:15 PM 68.0 °F 62.6 °F 83% 29.91 in 7.0 mi WSW 10.4 mph 20.7 mph N/A   Clear
8:35 PM 68.0 °F 62.6 °F 83% 29.91 in 7.0 mi WSW 16.1 mph 25.3 mph N/A   Clear
8:55 PM 68.0 °F 62.6 °F 83% 29.91 in 7.0 mi WSW 11.5 mph 18.4 mph N/A   Clear
9:15 PM 66.2 °F 62.6 °F 88% 29.91 in 6.0 mi SW 13.8 mph 21.9 mph N/A   Clear
9:35 PM 66.2 °F 62.6 °F 88% 29.92 in 7.0 mi SW 13.8 mph 21.9 mph N/A   Clear
9:55 PM 66.2 °F 62.6 °F 88% 29.93 in 7.0 mi WSW 11.5 mph 17.3 mph N/A   Scattered Clouds
10:15 PM 66.2 °F 62.6 °F 88% 29.94 in 6.0 mi WSW 10.4 mph 17.3 mph N/A   Overcast
10:35 PM 60.8 °F 55.4 °F 82% 30.01 in 1.5 mi North 18.4 mph 35.7 mph 0.09 in   Overcast
10:55 PM 55.4 °F 51.8 °F 88% 30.03 in 4.0 mi North 10.4 mph - 0.19 in   Mostly Cloudy
11:15 PM 57.2 °F 50.0 °F 77% 30.04 in 9.0 mi North 6.9 mph - N/A   Overcast
11:35 PM 57.2 °F 51.8 °F 82% 30.05 in 10.0 mi NNE 6.9 mph - N/A   Overcast
11:55 PM 57.2 °F 50.0 °F 77% 30.06 in 10.0 mi North 8.1 mph - N/A   Overcast